Location: Gauravaram
(16.6995°N, 80.5417°E)
Time: 21:00:33
(UTC+00:00)

CENTAUR R/B - Pass Details

Date: 03 August 2024
Orbit: 662 x 1522 km, 63.4° (Epoch: 14 September)

Event Time Altitude Azimuth Distance (km) Brightness Sun altitude
Rises 16:59:44 0° 335° (NNW) 4,512 6.6 -47.4°
Reaches altitude 10° 17:02:37 10° 335° (NNW) 3,597 5.9 -47.9°
Enters shadow 17:07:25 37° 336° (NNW) 2,191 4.5 -48.6°
